This demonstration page uses our WeatherBlox Daily Observations layout. Learn more.

Left ArrowRight Arrow

Hourly Observations for November 15, 2016

Temp ( °F °C ) Dew Point ( °F °C ) Humidity (%) Winds ( mph kmh ) Pressure ( in mb ) Visibility ( mi km ) Precip ( " mm )
12:15 am 00:15 Clear 44 6.5 34 1.1 69 69 SSW 3 6 30.00 1016 10 16 N/A
12:35 am 00:35 Clear 45 7.3 35 1.4 66 66 SW 5 7 30.00 1016 10 16 N/A
12:55 am 00:55 Clear 44 6.9 34 1.3 68 68 SW 3 6 30.00 1016 10 16 N/A
1:15 am 01:15 Clear 45 7 35 1.4 68 68 S 3 6 30.00 1016 10 16 N/A
1:35 am 01:35 Clear 44 6.4 34 1.2 70 70 SSW 6 9 30.00 1016 10 16 N/A
1:55 am 01:55 Clear 42 5.8 34 1.1 72 72 SW 6 9 30.00 1016 10 16 N/A
2:15 am 02:15 Clear 43 5.9 34 1 71 71 SW 6 9 30.00 1016 10 16 N/A
2:35 am 02:35 Clear 45 7.3 33 0.6 63 63 WSW 5 7 30.00 1016 10 16 N/A
2:55 am 02:55 Clear 46 7.5 32 undefined 59 59 W 7 11 30.00 1016 10 16 N/A
3:15 am 03:15 Clear 44 6.5 32 undefined 64 64 W 6 9 30.00 1016 10 16 N/A
3:35 am 03:35 Clear 42 5.8 31 -0.3 65 65 W 6 9 30.00 1016 10 16 N/A
3:55 am 03:55 Clear 44 6.6 32 -0.2 62 62 W 3 6 30.00 1016 10 16 N/A
4:15 am 04:15 Clear 45 7.3 31 -0.5 58 58 W 7 11 30.00 1016 10 16 N/A
4:35 am 04:35 Clear 46 7.6 32 undefined 59 59 W 8 13 30.00 1016 10 16 N/A
4:55 am 04:55 Clear 45 7.4 32 -0.2 59 59 W 6 9 30.00 1016 10 16 N/A
5:15 am 05:15 Clear 45 7.4 31 -0.6 57 57 W 3 6 30.00 1016 10 16 N/A
5:35 am 05:35 Clear 43 6 31 -0.8 62 62 W 3 6 30.00 1016 10 16 N/A
5:55 am 05:55 Clear 41 4.8 30 -1.2 65 65 W 3 6 30.03 1017 10 16 N/A
6:15 am 06:15 Clear 40 4.3 30 -1 69 69 N N/A 30.03 1017 10 16 N/A
6:35 am 06:35 Clear 39 4 30 -1 70 70 SW 3 6 30.03 1017 10 16 N/A
6:55 am 06:55 Clear 39 4 30 -1 70 70 SW 5 7 30.03 1017 10 16 N/A
7:15 am 07:15 Clear 38 3.5 30 -1 73 73 WSW 5 7 30.03 1017 10 16 N/A
7:35 am 07:35 Sunny 40 4.3 30 -1.2 68 68 W 9 15 30.03 1017 10 16 N/A
7:55 am 07:55 Sunny 41 5 31 -0.8 66 66 W 8 13 30.03 1017 10 16 N/A
8:15 am 08:15 Sunny 40 4.7 31 -0.5 69 69 W 7 11 30.03 1017 10 16 N/A
8:35 am 08:35 Sunny 43 6.3 32 undefined 64 64 W 7 11 30.00 1016 10 16 N/A
8:55 am 08:55 Sunny 46 7.5 33 0.5 62 62 WNW 8 13 30.00 1016 10 16 N/A
9:15 am 09:15 Sunny 49 9.5 35 1.8 59 59 NW 9 15 29.97 1015 10 16 N/A
9:35 am 09:35 Sunny 53 11.8 34 1.2 49 49 NNW 12 19 30.00 1016 10 16 N/A
9:55 am 09:55 Sunny 55 12.7 34 1.1 45 45 N 13 20 29.97 1015 10 16 N/A
10:15 am 10:15 Sunny 57 13.7 35 1.5 44 44 N 14 22 29.97 1015 10 16 N/A
10:35 am 10:35 Sunny 59 14.8 36 2 42 42 N 12 19 29.97 1015 10 16 N/A
10:55 am 10:55 Sunny 62 16.7 34 1.3 36 36 N 18 30 29.94 1014 10 16 N/A
11:15 am 11:15 Sunny 64 17.6 35 1.4 34 34 N 13 20 29.94 1014 10 16 N/A
11:35 am 11:35 Sunny 65 18.6 35 1.5 32 32 N 13 20 29.94 1014 10 16 N/A
11:55 am 11:55 Sunny 67 19.5 35 1.5 30 30 N 13 20 29.91 1013 10 16 N/A
12:15 pm 12:15 Sunny 68 19.8 35 1.5 30 30 N 13 20 29.91 1013 10 16 N/A
12:35 pm 12:35 Sunny 69 20.5 35 1.9 29 29 N 13 20 29.91 1013 10 16 N/A
12:55 pm 12:55 Sunny 70 20.9 35 1.9 28 28 N 12 19 29.91 1013 10 16 N/A
1:15 pm 13:15 Sunny 71 21.4 36 2 28 28 N 9 15 29.91 1013 10 16 N/A
1:35 pm 13:35 Sunny 71 21.8 35 1.9 27 27 N 13 20 29.91 1013 10 16 N/A
1:55 pm 13:55 Sunny 71 21.7 35 1.4 26 26 N 10 17 29.88 1012 10 16 N/A
2:15 pm 14:15 Sunny 71 21.8 35 1.4 26 26 NNE 7 11 29.88 1012 10 16 N/A
2:35 pm 14:35 Sunny 71 21.9 34 1.2 25 25 NNE 5 7 29.88 1012 10 16 N/A
2:55 pm 14:55 Sunny 72 22 34 0.9 25 25 N 8 13 29.88 1012 10 16 N/A
3:15 pm 15:15 Sunny 72 22 33 0.8 25 25 NNE 7 11 29.88 1012 10 16 N/A
3:35 pm 15:35 Sunny 72 22 33 0.5 24 24 N 8 13 29.91 1013 10 16 N/A
3:55 pm 15:55 Sunny 71 21.7 33 0.8 25 25 NNE 7 11 29.88 1012 10 16 N/A
4:15 pm 16:15 Sunny 70 21.1 34 1.1 27 27 NE 6 9 29.88 1012 10 16 N/A
4:35 pm 16:35 Sunny 68 20.1 35 1.5 29 29 ENE 5 7 29.88 1012 7 11 N/A
4:55 pm 16:55 Sunny 65 18.6 34 1.1 31 31 E 3 6 29.91 1013 10 16 N/A
5:15 pm 17:15 Hazy 60 15.5 35 1.9 40 40 E 5 7 29.94 1014 5 8 N/A
5:35 pm 17:35 Clear 56 13.4 34 1.2 44 44 E 6 9 29.94 1014 7 11 N/A
5:55 pm 17:55 Clear 56 13.3 34 1 43 43 E 5 7 29.94 1014 10 16 N/A
6:15 pm 18:15 Clear 53 11.4 34 1 49 49 ENE 6 9 29.97 1015 7 11 N/A
6:35 pm 18:35 Clear 50 10.1 34 1.1 54 54 E 6 9 29.97 1015 7 11 N/A
6:55 pm 18:55 Clear 52 11.1 34 1.1 50 50 N N/A 29.97 1015 10 16 N/A
7:15 pm 19:15 Clear 52 10.9 34 1.1 51 51 N N/A 30.00 1016 10 16 N/A
7:35 pm 19:35 Clear 48 8.8 34 0.9 58 58 N N/A 30.03 1017 10 16 N/A
7:55 pm 19:55 Clear 46 7.7 33 0.5 61 61 N N/A 30.00 1016 10 16 N/A
8:15 pm 20:15 Clear 47 8.6 34 0.9 59 59 N N/A 30.00 1016 10 16 N/A
8:35 pm 20:35 Clear 45 7 33 0.6 64 64 N N/A 30.00 1016 10 16 N/A
8:55 pm 20:55 Clear 46 7.6 34 1 63 63 N N/A 30.00 1016 10 16 N/A
9:15 pm 21:15 Clear 45 7.2 33 0.5 63 63 SSE 5 7 30.00 1016 10 16 N/A
9:35 pm 21:35 Clear 47 8.4 34 1.3 61 61 S 3 6 30.00 1016 10 16 N/A
9:55 pm 21:55 Clear 46 7.8 34 1.1 63 63 SSE 5 7 30.00 1016 10 16 N/A
10:15 pm 22:15 Clear 47 8.5 35 1.6 62 62 S 5 7 30.00 1016 10 16 N/A
10:35 pm 22:35 Clear 41 5.2 33 0.5 72 72 SE 8 13 30.03 1017 10 16 N/A
10:55 pm 22:55 Clear 43 6.1 34 1.2 71 71 SSE 7 11 30.00 1016 10 16 N/A
11:15 pm 23:15 Clear 46 8 36 2 66 66 SSE 7 11 30.00 1016 10 16 N/A
11:35 pm 23:35 Clear 38 3.4 32 0.1 79 79 SE 10 17 30.00 1016 10 16 N/A
11:55 pm 23:55 Clear 41 5.1 34 1 75 75 SE 10 17 30.00 1016 10 16 N/A

Powered by AerisWeather